Flag for Pakistan Weather past 2 weeks in Islamabad, Pakistan

Now
86 °F

Haze.


Feels Like: 91 °F
Forecast: 65 / 94 °F
Wind: 7 mph from Southeast

Location: Islamabad Airport

Current Time: Sep 18, 2014 at 11:34:41 AM

Latest Report: Sep 18, 2014 at 11:00 AM


Visibility: 2 mi

Pressure: 29.80 "Hg

Humidity: 59%

Dew point: 70 °F

Location of IslamabadLocation

Historic Weather in Islamabad — Graph

°F

Islamabad temperature yesterday

Maximum temperature yesterday: 93 °F (at 3:00 PM)
Minimum temperature yesterday: 73 °F (at 4:00 AM)
Average temperature yesterday: 83 °F

Past Weeks' High & Low Weather Summary

 TemperatureHumidityPressure
High93 °F (Sep 9, 3:00 PM)100% (Sep 4, 5:00 PM)29.86 "Hg (Sep 4, 5:00 PM)
Low66 °F (Sep 14, 8:00 AM)41% (Sep 15, 3:00 PM)29.56 "Hg (Sep 6, 3:00 AM)
Average79 °F74%29.73 "Hg
* Reported Sep 3 10:00 AM — Sep 18 10:00 AM, Islamabad, Weather by CustomWeather, © 2014

Note: Actual official high and low records may vary slightly from our data, if they occured in-between our weather recording intervals... More about our weather records

Advertising

Islamabad weather history for previous 24 hours

 ConditionsComfort  
Time TempWeatherWind HumidityBarometerVisibility
10:00 AM
Sep 18
82 °FScattered clouds.7 mph66%29.80 "Hg2 mi
9:00 AM82 °FScattered clouds.7 mph66%29.80 "Hg2 mi
8:00 AM79 °FScattered clouds.7 mph79%29.77 "Hg2 mi
7:00 AM77 °FFog.5 mph83%29.77 "Hg2 mi
6:00 AM75 °FFog.5 mph83%29.74 "Hg2 mi
5:00 AM75 °FHaze.5 mph74%29.71 "Hg2 mi
4:00 AM77 °FHaze.5 mph74%29.71 "Hg2 mi
3:00 AM77 °FHaze.5 mph79%29.68 "Hg2 mi
2:00 AM81 °FHaze.7 mph70%29.71 "Hg2 mi
1:00 AM81 °FHaze.7 mph74%29.71 "Hg2 mi
12:00 AM81 °FHaze.7 mph79%29.71 "Hg2 mi
11:00 PM
Sep 17
82 °FHaze.7 mph70%29.71 "Hg3 mi
10:00 PM84 °FHaze.7 mph70%29.71 "Hg3 mi
9:00 PM84 °FHaze.7 mph70%29.71 "Hg3 mi
8:00 PM86 °FHaze.7 mph70%29.71 "Hg4 mi
7:00 PM88 °FHaze.7 mph62%29.68 "Hg4 mi
6:00 PM90 °FHaze.12 mph59%29.68 "Hg4 mi
5:00 PM91 °FScattered clouds.12 mph56%29.65 "Hg4 mi
4:00 PM93 °FScattered clouds.14 mph53%29.65 "Hg4 mi
3:00 PM93 °FScattered clouds.14 mph53%29.65 "Hg2 mi
2:00 PM91 °FScattered clouds.9 mph56%29.68 "Hg2 mi
12:55 PM91 °FScattered clouds.9 mph59%29.68 "Hg2 mi
11:55 AM88 °FScattered clouds.7 mph62%29.71 "Hg2 mi
Weather by CustomWeather, © 2014

See weather overviewHow to use our weather pages